| time (UTC) | temp F | wind direction | speed MPH | gust MPH | rain 1hr in | rain 24hr in | rain mn in | humidity % | barometer mb |
| 20260504023103 | 43 | 159 | 0.0 | 0.0 | 0.00 | 0.00 | 0.00 | 71 | 1009.0 |
| 20260504022558 | 42 | 159 | 0.0 | 0.0 | 0.00 | 0.00 | 0.00 | 71 | 1009.0 |
| 20260504022054 | 42 | 159 | 0.0 | 0.0 | 0.00 | 0.00 | 0.00 | 70 | 1009.0 |
| 20260504021554 | 43 | 159 | 0.0 | 0.0 | 0.00 | 0.00 | 0.00 | 69 | 1009.0 |
| 20260504021053 | 43 | 159 | 0.0 | 0.0 | 0.00 | 0.00 | 0.00 | 68 | 1009.0 |
| 20260504020553 | 43 | 159 | 0.0 | 0.0 | 0.00 | 0.00 | 0.00 | 65 | 1009.0 |
| 20260504020058 | 43 | 159 | 0.0 | 0.0 | 0.00 | 0.00 | 0.00 | 65 | 1008.9 |
| 20260504015551 | 43 | 159 | 0.0 | 0.0 | 0.00 | 0.00 | 0.00 | 62 | 1009.0 |
| 20260504015050 | 44 | 159 | 0.0 | 0.0 | 0.00 | 0.00 | 0.00 | 61 | 1008.9 |
| 20260504014550 | 44 | 159 | 0.0 | 0.0 | 0.00 | 0.00 | 0.00 | 61 | 1008.9 |
| 20260504014047 | 44 | 159 | 0.0 | 0.0 | 0.00 | 0.00 | 0.00 | 62 | 1008.8 |
| 20260504013547 | 45 | 159 | 0.0 | 0.0 | 0.00 | 0.00 | 0.00 | 62 | 1008.8 |
| 20260504013054 | 45 | 159 | 0.0 | 0.0 | 0.00 | 0.00 | 0.00 | 61 | 1008.7 |
| 20260504012645 | 45 | 159 | 0.0 | 0.0 | 0.00 | 0.00 | 0.00 | 60 | 1008.6 |
| 20260504012046 | 46 | 159 | 0.0 | 0.0 | 0.00 | 0.00 | 0.00 | 58 | 1008.6 |
| 20260504011544 | 47 | 159 | 0.0 | 0.0 | 0.00 | 0.00 | 0.00 | 57 | 1008.5 |
| 20260504011042 | 47 | 159 | 0.0 | 0.0 | 0.00 | 0.00 | 0.00 | 56 | 1008.4 |
| 20260504010542 | 48 | 159 | 0.0 | 0.0 | 0.00 | 0.00 | 0.00 | 55 | 1008.3 |
| 20260504010051 | 48 | 159 | 0.0 | 0.0 | 0.00 | 0.00 | 0.00 | 56 | 1008.3 |
| 20260504005542 | 48 | 159 | 0.0 | 0.0 | 0.00 | 0.00 | 0.00 | 55 | 1008.2 |
| 20260504005042 | 49 | 159 | 0.0 | 0.0 | 0.00 | 0.00 | 0.00 | 52 | 1008.1 |
| 20260504004557 | 49 | 159 | 0.0 | 0.0 | 0.00 | 0.00 | 0.00 | 52 | 1008.1 |
| 20260504004041 | 49 | 159 | 0.0 | 0.0 | 0.00 | 0.00 | 0.00 | 51 | 1008.0 |
| 20260504003541 | 50 | 159 | 0.0 | 0.0 | 0.00 | 0.00 | 0.00 | 48 | 1007.9 |
| 20260504003041 | 50 | 159 | 0.0 | 0.0 | 0.00 | 0.00 | 0.00 | 47 | 1007.9 |
| 20260504002542 | 50 | 159 | 0.0 | 0.0 | 0.00 | 0.00 | 0.00 | 46 | 1007.9 |
| 20260504002041 | 51 | 159 | 0.0 | 0.0 | 0.00 | 0.00 | 0.00 | 44 | 1007.8 |
| 20260504001541 | 51 | 159 | 0.0 | 1.0 | 0.00 | 0.00 | 0.00 | 44 | 1007.7 |
| 20260504001042 | 51 | 160 | 0.0 | 1.0 | 0.00 | 0.00 | 0.00 | 43 | 1007.7 |
| 20260504000541 | 52 | 160 | 0.0 | 2.0 | 0.00 | 0.00 | 0.00 | 43 | 1007.6 |
| 20260504000041 | 52 | 353 | 0.0 | 2.0 | 0.00 | 0.00 | 0.00 | 42 | 1007.6 |
| 20260503235540 | 52 | 360 | 0.0 | 5.0 | 0.00 | 0.00 | 0.00 | 42 | 1007.6 |
| 20260503235041 | 52 | 351 | 0.0 | 5.0 | 0.00 | 0.00 | 0.00 | 42 | 1007.5 |
| 20260503234543 | 52 | 352 | 0.0 | 5.0 | 0.00 | 0.00 | 0.00 | 42 | 1007.4 |
| 20260503234040 | 53 | 7 | 0.0 | 5.0 | 0.00 | 0.00 | 0.00 | 41 | 1007.4 |
| 20260503233543 | 53 | 13 | 1.0 | 5.0 | 0.00 | 0.00 | 0.00 | 40 | 1007.3 |
| 20260503233040 | 53 | 353 | 0.0 | 5.0 | 0.00 | 0.00 | 0.00 | 41 | 1007.3 |
| 20260503232543 | 53 | 160 | 0.0 | 5.0 | 0.00 | 0.00 | 0.00 | 40 | 1007.3 |
| 20260503232039 | 54 | 80 | 1.0 | 7.0 | 0.00 | 0.00 | 0.00 | 39 | 1007.3 |
| 20260503231539 | 54 | 346 | 1.0 | 10.0 | 0.00 | 0.00 | 0.00 | 39 | 1007.2 |
| 20260503231039 | 54 | 8 | 2.0 | 10.0 | 0.00 | 0.00 | 0.00 | 39 | 1007.1 |
| 20260503230539 | 54 | 58 | 0.0 | 11.0 | 0.00 | 0.00 | 0.00 | 39 | 1007.1 |
| 20260503230040 | 54 | 7 | 3.0 | 11.0 | 0.00 | 0.00 | 0.00 | 38 | 1006.9 |
| 20260503225538 | 54 | 358 | 2.0 | 11.0 | 0.00 | 0.00 | 0.00 | 40 | 1006.8 |
| 20260503225038 | 55 | 19 | 2.0 | 10.0 | 0.00 | 0.00 | 0.00 | 39 | 1006.7 |
| 20260503224537 | 54 | 6 | 1.0 | 15.0 | 0.00 | 0.00 | 0.00 | 40 | 1006.6 |
| 20260503224038 | 55 | 159 | 2.0 | 15.0 | 0.00 | 0.00 | 0.00 | 38 | 1006.6 |
| 20260503223536 | 55 | 338 | 3.0 | 11.0 | 0.00 | 0.00 | 0.00 | 38 | 1006.6 |
| 20260503223036 | 55 | 151 | 3.0 | 13.0 | 0.00 | 0.00 | 0.00 | 38 | 1006.4 |
| 20260503222534 | 55 | 2 | 2.0 | 13.0 | 0.00 | 0.00 | 0.00 | 39 | 1006.4 |
| 20260503222034 | 55 | 1 | 3.0 | 9.0 | 0.00 | 0.00 | 0.00 | 37 | 1006.3 |
| 20260503221541 | 55 | 13 | 3.0 | 8.0 | 0.00 | 0.00 | 0.00 | 38 | 1006.3 |
| 20260503221034 | 56 | 5 | 2.0 | 8.0 | 0.00 | 0.00 | 0.00 | 38 | 1006.2 |
| 20260503220534 | 55 | 6 | 1.0 | 7.0 | 0.00 | 0.00 | 0.00 | 39 | 1006.1 |
| 20260503220034 | 55 | 330 | 2.0 | 7.0 | 0.00 | 0.00 | 0.00 | 39 | 1006.1 |
| 20260503215534 | 55 | 1 | 1.0 | 10.0 | 0.00 | 0.00 | 0.00 | 39 | 1006.1 |
| 20260503215033 | 55 | 357 | 3.0 | 10.0 | 0.00 | 0.00 | 0.00 | 39 | 1006.0 |
| 20260503214534 | 55 | 16 | 2.0 | 10.0 | 0.00 | 0.00 | 0.00 | 41 | 1005.9 |
| 20260503214035 | 55 | 356 | 2.0 | 11.0 | 0.00 | 0.00 | 0.00 | 38 | 1005.9 |
| 20260503213532 | 55 | 354 | 3.0 | 11.0 | 0.00 | 0.00 | 0.00 | 39 | 1005.9 |
| 20260503213041 | 55 | 11 | 3.0 | 10.0 | 0.00 | 0.00 | 0.00 | 39 | 1005.8 |
| 20260503212532 | 55 | 17 | 3.0 | 10.0 | 0.00 | 0.00 | 0.00 | 38 | 1005.7 |
| 20260503212032 | 55 | 13 | 2.0 | 7.0 | 0.00 | 0.00 | 0.00 | 38 | 1005.6 |
| 20260503211531 | 56 | 340 | 2.0 | 11.0 | 0.00 | 0.00 | 0.00 | 39 | 1005.6 |
| 20260503211031 | 56 | 8 | 4.0 | 11.0 | 0.00 | 0.00 | 0.00 | 38 | 1005.4 |
| 20260503210530 | 55 | 3 | 6.0 | 14.0 | 0.00 | 0.00 | 0.00 | 37 | 1005.4 |
| 20260503210030 | 55 | 10 | 3.0 | 14.0 | 0.00 | 0.00 | 0.00 | 39 | 1005.3 |
| 20260503205530 | 55 | 31 | 4.0 | 13.0 | 0.00 | 0.00 | 0.00 | 39 | 1005.2 |
| 20260503205030 | 55 | 288 | 3.0 | 11.0 | 0.00 | 0.00 | 0.00 | 39 | 1005.1 |
| 20260503204544 | 55 | 172 | 2.0 | 9.0 | 0.00 | 0.00 | 0.00 | 40 | 1005.2 |
| 20260503204029 | 55 | 128 | 3.0 | 9.0 | 0.00 | 0.00 | 0.00 | 41 | 1005.0 |
| 20260503203529 | 55 | 19 | 2.0 | 9.0 | 0.00 | 0.00 | 0.00 | 40 | 1005.0 |
| 20260503203131 | 55 | 215 | 2.0 | 8.0 | 0.00 | 0.00 | 0.00 | 40 | 1004.9 |
| 20260503202528 | 55 | 337 | 2.0 | 14.0 | 0.00 | 0.00 | 0.00 | 40 | 1004.8 |
| 20260503202029 | 55 | 188 | 2.0 | 14.0 | 0.00 | 0.00 | 0.00 | 39 | 1004.8 |
| 20260503201529 | 55 | 269 | 2.0 | 14.0 | 0.00 | 0.00 | 0.00 | 40 | 1004.9 |
| 20260503201028 | 55 | 171 | 3.0 | 14.0 | 0.00 | 0.00 | 0.00 | 40 | 1004.8 |
| 20260503200528 | 55 | 332 | 3.0 | 10.0 | 0.00 | 0.00 | 0.00 | 41 | 1004.8 |
| 20260503200028 | 55 | 1 | 3.0 | 10.0 | 0.00 | 0.00 | 0.00 | 40 | 1004.7 |
| 20260503195527 | 55 | 351 | 3.0 | 10.0 | 0.00 | 0.00 | 0.00 | 40 | 1004.7 |
| 20260503195027 | 55 | 13 | 1.0 | 10.0 | 0.00 | 0.00 | 0.00 | 40 | 1004.7 |
| 20260503194527 | 55 | 339 | 2.0 | 10.0 | 0.00 | 0.00 | 0.00 | 40 | 1004.7 |
| 20260503194028 | 55 | 349 | 3.0 | 10.0 | 0.00 | 0.00 | 0.00 | 40 | 1004.7 |
| 20260503193526 | 55 | 316 | 2.0 | 10.0 | 0.00 | 0.00 | 0.00 | 40 | 1004.7 |
| 20260503193033 | 55 | 313 | 1.0 | 11.0 | 0.00 | 0.00 | 0.00 | 41 | 1004.8 |
| 20260503192525 | 55 | 24 | 4.0 | 15.0 | 0.00 | 0.00 | 0.00 | 40 | 1004.7 |
| 20260503192023 | 55 | 4 | 6.0 | 15.0 | 0.00 | 0.00 | 0.00 | 40 | 1004.7 |
| 20260503191523 | 55 | 336 | 5.0 | 13.0 | 0.00 | 0.00 | 0.00 | 41 | 1004.8 |
| 20260503191023 | 55 | 22 | 3.0 | 13.0 | 0.00 | 0.00 | 0.00 | 42 | 1004.7 |
| 20260503190522 | 55 | 8 | 4.0 | 13.0 | 0.00 | 0.00 | 0.00 | 42 | 1004.8 |
| 20260503190021 | 55 | 114 | 3.0 | 10.0 | 0.00 | 0.00 | 0.00 | 42 | 1004.7 |
| 20260503185520 | 55 | 327 | 2.0 | 12.0 | 0.00 | 0.01 | 0.00 | 44 | 1004.7 |
| 20260503185019 | 55 | 200 | 3.0 | 12.0 | 0.00 | 0.01 | 0.00 | 42 | 1004.7 |
| 20260503184532 | 55 | 156 | 1.0 | 11.0 | 0.00 | 0.01 | 0.00 | 41 | 1004.7 |
| 20260503184020 | 55 | 360 | 1.0 | 10.0 | 0.00 | 0.01 | 0.00 | 42 | 1004.7 |
| 20260503183517 | 55 | 1 | 3.0 | 8.0 | 0.00 | 0.01 | 0.00 | 43 | 1004.7 |
| 20260503183016 | 55 | 6 | 3.0 | 8.0 | 0.00 | 0.01 | 0.00 | 43 | 1004.7 |
| 20260503182515 | 55 | 352 | 2.0 | 7.0 | 0.00 | 0.01 | 0.00 | 43 | 1004.7 |
| 20260503182015 | 55 | 150 | 2.0 | 7.0 | 0.00 | 0.01 | 0.00 | 44 | 1004.7 |
| 20260503181514 | 55 | 306 | 2.0 | 11.0 | 0.00 | 0.01 | 0.00 | 43 | 1004.8 |
| 20260503181014 | 54 | 296 | 3.0 | 11.0 | 0.00 | 0.01 | 0.00 | 44 | 1004.7 |
| 20260503180513 | 54 | 23 | 3.0 | 12.0 | 0.00 | 0.01 | 0.00 | 44 | 1004.7 |
| 20260503180020 | 55 | 30 | 3.0 | 12.0 | 0.00 | 0.01 | 0.00 | 43 | 1004.8 |
| 20260503175510 | 55 | 349 | 2.0 | 7.0 | 0.00 | 0.01 | 0.00 | 45 | 1004.6 |
| 20260503175010 | 55 | 10 | 2.0 | 9.0 | 0.00 | 0.01 | 0.00 | 45 | 1004.6 |
| 20260503174508 | 55 | 335 | 2.0 | 12.0 | 0.00 | 0.01 | 0.00 | 45 | 1004.7 |
| 20260503174106 | 55 | 27 | 3.0 | 12.0 | 0.00 | 0.01 | 0.00 | 45 | 1004.7 |
| 20260503173505 | 55 | 27 | 6.0 | 11.0 | 0.00 | 0.01 | 0.00 | 44 | 1004.8 |
| 20260503173005 | 55 | 28 | 4.0 | 11.0 | 0.00 | 0.01 | 0.00 | 46 | 1004.7 |
| 20260503172504 | 55 | 150 | 4.0 | 11.0 | 0.00 | 0.01 | 0.00 | 47 | 1004.8 |
| 20260503172002 | 55 | 351 | 3.0 | 8.0 | 0.00 | 0.01 | 0.00 | 49 | 1004.8 |
| 20260503171501 | 54 | 3 | 2.0 | 11.0 | 0.00 | 0.01 | 0.00 | 48 | 1004.8 |
| 20260503171100 | 54 | 17 | 5.0 | 11.0 | 0.00 | 0.01 | 0.00 | 49 | 1004.9 |
| 20260503170600 | 53 | 12 | 5.0 | 14.0 | 0.00 | 0.01 | 0.00 | 50 | 1004.9 |
| 20260503150548 | 50 | 344 | 4.0 | 14.0 | 0.00 | 0.01 | 0.00 | 61 | 1004.8 |
| 20260503131043 | 48 | 330 | 4.0 | 10.0 | 0.00 | 0.01 | 0.00 | 63 | 1004.8 |
| 20260503130540 | 48 | 12 | 4.0 | 11.0 | 0.00 | 0.01 | 0.00 | 64 | 1004.8 |
| 20260503110529 | 44 | 38 | 2.0 | 4.0 | 0.00 | 0.01 | 0.00 | 67 | 1005.6 |
| 20260503081510 | 47 | 360 | 1.0 | 5.0 | 0.00 | 0.01 | 0.00 | 56 | 1006.1 |
| 20260503081009 | 47 | 353 | 0.0 | 3.0 | 0.00 | 0.01 | 0.00 | 57 | 1006.1 |
| 20260503080509 | 47 | 353 | 1.0 | 4.0 | 0.00 | 0.01 | 0.00 | 56 | 1006.2 |
| 20260503072504 | 48 | 341 | 1.0 | 5.0 | 0.00 | 0.01 | 0.00 | 55 | 1006.5 |
| 20260503072006 | 48 | 8 | 2.0 | 7.0 | 0.00 | 0.01 | 0.00 | 54 | 1006.4 |
| 20260503071509 | 48 | 7 | 1.0 | 7.0 | 0.00 | 0.01 | 0.00 | 54 | 1006.2 |
| 20260503071003 | 48 | 13 | 2.0 | 6.0 | 0.00 | 0.01 | 0.00 | 54 | 1006.4 |
| 20260503070501 | 48 | 5 | 2.0 | 6.0 | 0.00 | 0.01 | 0.00 | 54 | 1006.5 |
| 20260503055050 | 49 | 15 | 0.0 | 6.0 | 0.00 | 0.01 | 0.00 | 56 | 1007.3 |
| 20260503054549 | 49 | 15 | 1.0 | 6.0 | 0.00 | 0.01 | 0.00 | 56 | 1007.3 |
| 20260503054048 | 49 | 334 | 1.0 | 6.0 | 0.00 | 0.01 | 0.00 | 56 | 1007.6 |
| 20260503053547 | 49 | 2 | 1.0 | 6.0 | 0.00 | 0.01 | 0.00 | 56 | 1007.8 |
| 20260503053046 | 49 | 5 | 1.0 | 6.0 | 0.00 | 0.01 | 0.00 | 56 | 1007.9 |
| 20260503052545 | 50 | 5 | 1.0 | 6.0 | 0.00 | 0.01 | 0.00 | 56 | 1007.8 |
| 20260503052044 | 50 | 34 | 1.0 | 6.0 | 0.00 | 0.01 | 0.00 | 57 | 1007.9 |
| 20260503051543 | 50 | 360 | 1.0 | 6.0 | 0.00 | 0.01 | 0.00 | 57 | 1007.9 |
| 20260503051043 | 50 | 3 | 2.0 | 6.0 | 0.00 | 0.01 | 0.00 | 56 | 1008.0 |
| 20260503050543 | 50 | 28 | 2.0 | 6.0 | 0.00 | 0.01 | 0.00 | 57 | 1007.9 |
| 20260503050042 | 50 | 3 | 2.0 | 5.0 | 0.00 | 0.01 | 0.00 | 57 | 1007.9 |
| 20260503045544 | 50 | 358 | 1.0 | 5.0 | 0.00 | 0.01 | 0.00 | 58 | 1007.9 |
| 20260503045043 | 50 | 5 | 1.0 | 5.0 | 0.00 | 0.01 | 0.00 | 59 | 1007.8 |
| 20260503044539 | 50 | 341 | 1.0 | 5.0 | 0.00 | 0.01 | 0.00 | 58 | 1008.0 |
| 20260503044037 | 50 | 342 | 1.0 | 4.0 | 0.00 | 0.01 | 0.00 | 59 | 1008.2 |
| 20260503043537 | 50 | 353 | 0.0 | 5.0 | 0.00 | 0.01 | 0.00 | 59 | 1008.3 |
| 20260503043041 | 50 | 188 | 1.0 | 5.0 | 0.00 | 0.01 | 0.00 | 60 | 1008.4 |
| 20260503042536 | 50 | 1 | 1.0 | 7.0 | 0.00 | 0.01 | 0.00 | 61 | 1008.4 |
| 20260503042035 | 50 | 8 | 3.0 | 8.0 | 0.00 | 0.01 | 0.00 | 61 | 1008.3 |
| 20260503041535 | 50 | 16 | 1.0 | 8.0 | 0.00 | 0.01 | 0.00 | 66 | 1008.2 |
| 20260503041032 | 50 | 3 | 2.0 | 6.0 | 0.00 | 0.01 | 0.00 | 66 | 1008.3 |
| 20260503040532 | 50 | 8 | 2.0 | 6.0 | 0.00 | 0.01 | 0.00 | 70 | 1008.3 |
| 20260503040039 | 50 | 5 | 1.0 | 6.0 | 0.00 | 0.01 | 0.00 | 75 | 1008.4 |
| 20260503035532 | 50 | 358 | 0.0 | 4.0 | 0.00 | 0.01 | 0.01 | 82 | 1008.6 |
| 20260503035031 | 50 | 5 | 1.0 | 4.0 | 0.00 | 0.01 | 0.01 | 87 | 1008.6 |
| 20260503034543 | 50 | 357 | 0.0 | 0.0 | 0.00 | 0.01 | 0.01 | 91 | 1008.6 |
| 20260503034030 | 50 | 357 | 0.0 | 0.0 | 0.00 | 0.01 | 0.01 | 91 | 1008.6 |
| 20260503033529 | 50 | 357 | 0.0 | 0.0 | 0.00 | 0.01 | 0.01 | 92 | 1008.6 |
| 20260503033038 | 50 | 352 | 0.0 | 0.0 | 0.00 | 0.01 | 0.01 | 91 | 1008.7 |
| 20260503032529 | 50 | 353 | 0.0 | 0.0 | 0.00 | 0.01 | 0.01 | 91 | 1008.7 |
| 20260503032029 | 50 | 353 | 0.0 | 0.0 | 0.00 | 0.01 | 0.01 | 91 | 1008.7 |
| 20260503031536 | 50 | 353 | 0.0 | 0.0 | 0.00 | 0.01 | 0.01 | 91 | 1008.5 |
| 20260503031029 | 50 | 353 | 0.0 | 0.0 | 0.00 | 0.01 | 0.01 | 91 | 1008.5 |
| 20260503030528 | 50 | 353 | 0.0 | 0.0 | 0.00 | 0.01 | 0.01 | 91 | 1008.6 |
| 20260503030030 | 50 | 353 | 0.0 | 0.0 | 0.00 | 0.01 | 0.01 | 91 | 1008.4 |
| 20260503025528 | 50 | 219 | 0.0 | 0.0 | 0.00 | 0.01 | 0.01 | 91 | 1008.4 |
| 20260503025031 | 50 | 219 | 0.0 | 0.0 | 0.00 | 0.01 | 0.01 | 91 | 1008.5 |
| 20260503024527 | 50 | 219 | 0.0 | 0.0 | 0.00 | 0.01 | 0.01 | 91 | 1008.5 |
| 20260503024027 | 50 | 219 | 0.0 | 0.0 | 0.00 | 0.01 | 0.01 | 90 | 1008.5 |
| 20260503023527 | 50 | 219 | 0.0 | 0.0 | 0.00 | 0.01 | 0.01 | 90 | 1008.5 |